Regional Weather Roundup
Issued by NWS

Home | Current Version | Previous Version | Graphics & Text | Print | Product List | Glossary On
Versions: 1 2 3 4 5 6 7 8 9 10 11 12 13 14 15 16 17 18 19 20 21 22 23 24 25 26 27 28 29 30 31 32 33 34 35 36 37 38 39 40 41 42 43 44 45 46 47 48 49 50
466
ASUS43 KDMX 260906
RWRIA

WEATHER ROUNDUP FOR IOWA
NATIONAL WEATHER SERVICE DES MOINES IA
400 AM CDT SUN MAR 26 2017

NOTE: "FAIR" INDICATES FEW OR NO CLOUDS BELOW 12,000 FEET WITH NO
SIGNIFICANT WEATHER AND/OR OBSTRUCTIONS TO VISIBILITY.

* - THESE STATIONS ARE NOT NWS STATIONS...THUS NOT UNDER NWS
QUALITY CONTROL.  THEY ALSO DO NOT REPORT WEATHER SUCH
AS PRECIPITATION OR FOG.

IAZ001>003-012>014-020>022-031>034-043>046-261000-
   NORTHWEST IOWA

CITY           SKY/WX    TMP DP  RH WIND       PRES   REMARKS
CARROLL *      CLOUDY    39  37  93 N9        29.87F FOG     WCI  33
CHEROKEE *     CLOUDY    37  37 100 NE5       29.90F FOG     WCI  33
LE MARS *      CLOUDY    37  37 100 NE7       29.91F FOG     WCI  32
ORANGE CITY *  CLOUDY    37  37 100 NE6       29.90F FOG     WCI  33
SHELDON *      CLOUDY    36  36 100 NE6       29.89F FOG     WCI  31
SIOUX CITY     CLOUDY    39  39 100 NE6       29.90F WCI  35
SPENCER        CLOUDY    37  36  96 N6        29.90F WCI  32
STORM LAKE *   CLOUDY    37  36  93 NE8       29.89F FOG     WCI  31
$$

IAZ055>058-069>071-079>083-090>094-261000-
   SOUTHWEST IOWA

CITY           SKY/WX    TMP DP  RH WIND       PRES   REMARKS
ATLANTIC *     CLOUDY    39  39 100 N8        29.87F FOG     WCI  34
AUDUBON *      FOG       37  36  93 N8        29.87F VSB 1   WCI  31
CLARINDA *     CLOUDY    41  41 100 N5        29.89F
COUNCIL BLFS * CLOUDY    39  39 100 N6        29.88S FOG     WCI  35
CRESTON *      FOG       39  39 100 N7        29.86S VSB 1/2 WCI  34
HARLAN  *      CLOUDY    39  39 100 N6        29.92R WCI  35
LAMONI         FOG       42  42 100 NW9       29.83R VSB 1
RED OAK *      CLOUDY    41  41 100 N6        29.88S
SHENANDOAH *   CLOUDY    41  41 100 N3        29.88F FOG
$$

IAZ047>049-059>061-072>074-084-261000-
   CENTRAL IOWA

CITY           SKY/WX    TMP DP  RH WIND       PRES   REMARKS
AMES           CLOUDY    40  40 100 N6        29.85F
ANKENY *       CLOUDY    41  41 100 N7        29.86S
BOONE *        FOG       39  39 100 NE8       29.84F VSB 1/2 WCI  34
CHARITON *     MIX PCPN  41  41 100 N8        29.82S
DES MOINES     LGT RAIN  42  41  96 N8        29.84F FOG
GRINNELL*      FOG       40  40  99 N9        29.83F VSB 1/2 WCI  35
MARSHALLTOWN   CLOUDY    40  40 100 NE9       29.84F FOG     WCI  34
NEWTON *       CLOUDY    41  41 100 N12       29.82F FOG
PELLA *        LGT RAIN  41  41  99 N8        29.84S
PERRY *        FOG       40  39  98 N7        29.86S VSB 1   WCI  35
$$

IAZ004>006-015-016-023>025-035-036-261000-
   NORTH CENTRAL IOWA

CITY           SKY/WX    TMP DP  RH WIND       PRES   REMARKS
ALGONA *       MIX PCPN  37  37 100 NE10      29.89F WCI  30
CLARION *      FOG       37  37 100 NE10      29.87F VSB 3/4 WCI  30
ESTHERVILLE    CLOUDY    36  36 100 NE8       29.89F WCI  30
FORT DODGE *   CLOUDY    37  36  93 N6        29.88S WCI  33
MASON CITY     FOG       37  36  96 NE9       29.89F VSB 3/4 WCI  30
FOREST CITY *  FOG       36  36 100 NE6       29.89S VSB 3/4 WCI  31
WEBSTER CITY * FOG       37  37 100 NE8       29.84F VSB 1/2 WCI  31
IOWA FALLS *   RAIN      39  38  97 NE9       29.87F WCI  33
$$

IAZ007>011-017>019-026>030-037>042-050>054-066-261000-
   NORTHEAST IOWA

CITY           SKY/WX    TMP DP  RH WIND       PRES   REMARKS
CEDAR RAPIDS   FOG       42  42 100 NE12      29.80F VSB 1/4
CHARLES CITY * LGT RAIN  37  37 100 NE13      29.88S WCI  29
CLINTON *      FOG       46  46 100 E10       29.82F VSB 1
DECORAH *      CLOUDY    37  36  93 VRB7      29.88S FOG     WCI  32
DUBUQUE        FOG       40  40 100 NE15      29.84F VSB 1/4 WCI  32
MONTICELLO *   CLOUDY    41  41 100 NE7G14    29.83F FOG
OELWEIN *      CLOUDY    39  39 100 NE12      29.86S FOG     WCI  32
WATERLOO       CLOUDY    39  38  96 NE10      29.86F FOG     WCI  32
$$

IAZ064-065-067-068-078-261000-
   EAST CENTRAL IOWA

CITY           SKY/WX    TMP DP  RH WIND       PRES   REMARKS
DAVENPORT      FOG       47  46  97 E10       29.81F VSB 1/4
IOWA CITY      CLOUDY    45  44  97 NE9       29.82F FOG
MUSCATINE *    CLOUDY    48  46  93 NE6       29.80F FOG
QUAD CITIES    FOG       48  47  96 E6        29.80F VSB 1/4
$$

IAZ062-063-075>077-085>089-095>099-261000-
   SOUTHEAST IOWA

CITY           SKY/WX    TMP DP  RH WIND       PRES   REMARKS
BURLINGTON     CLOUDY    54  53  97 SE6       29.77F
FAIRFIELD *    FOG       46  46 100 N10       29.78F VSB 1/4
FORT MADISON * CLOUDY    55  54  94 E5        29.78S
KEOKUK *       CLOUDY    54  54 100 SE5       29.76S
OSKALOOSA *    LGT RAIN  42  42  99 N7        29.81S VSB 1/2
OTTUMWA        CLOUDY    45  45 100 N9        29.80S FOG
WASHINGTON *   FOG       45  45 100 NE9       29.80F VSB 1/4
$$

ABBREVIATIONS USED IN REMARKS
   TC - TEMPERATURES IN CELSIUS
  WCI - WIND CHILL INDEX
   HX - HEAT INDEX
  VSB - VISIBILITY
$$





USA.gov is the U.S. government's official web portal to all federal, state and local government web resources and services.